• In Netherlands
  • List of Countries
  • For 7 days
  • Water Temperature
  • Satellite Maps
  • Weather Map
  • Weather Widgets
  • user-avatar
    Login

    Hourly Weather Rawson

    Today, 24 September, Sunday

    Time Temperature Precipitation Wind Pressure Humidity
    00:00 +21°C° 0 mm 11 mps 753 mmHg 32%
    01:00 +21°C° 0 mm 10 mps 753 mmHg 33%
    02:00 +21°C° 0 mm 10 mps 753 mmHg 34%
    03:00 +19°C° 0 mm 9 mps 753 mmHg 33%
    04:00 +18°C° 0 mm 7 mps 754 mmHg 32%
    05:00 +17°C° 0 mm 6 mps 754 mmHg 31%
    06:00 +17°C° 0 mm 6 mps 754 mmHg 31%
    07:00 +19°C° 0 mm 6 mps 755 mmHg 32%
    08:00 +19°C° 0 mm 6 mps 755 mmHg 32%
    09:00 +20°C° 0 mm 6 mps 755 mmHg 30%
    10:00 +21°C° 0 mm 6 mps 756 mmHg 28%
    11:00 +21°C° 0 mm 6 mps 756 mmHg 25%
    12:00 +21°C° 0 mm 6 mps 756 mmHg 25%
    13:00 +22°C° 0 mm 6 mps 756 mmHg 24%
    14:00 +22°C° 0 mm 6 mps 756 mmHg 23%
    15:00 +21°C° 0 mm 7 mps 756 mmHg 24%
    16:00 +21°C° 0 mm 7 mps 757 mmHg 24%
    17:00 +21°C° 0 mm 8 mps 757 mmHg 24%
    18:00 +18°C° 0 mm 8 mps 758 mmHg 27%
    19:00 +16°C° 0 mm 8 mps 759 mmHg 30%
    20:00 +15°C° 0 mm 8 mps 760 mmHg 33%
    21:00 +13°C° 0 mm 8 mps 761 mmHg 31%
    22:00 +14°C° 0 mm 7 mps 761 mmHg 30%
    23:00 +12°C° 0 mm 7 mps 762 mmHg 29%

    Tomorrow, 25 September, Monday

    Time Temperature Precipitation Wind Pressure Humidity
    00:00 +12°C° 0 mm 7 mps 762 mmHg 31%
    01:00 +11°C° 0 mm 7 mps 763 mmHg 32%
    02:00 +10°C° 0 mm 7 mps 763 mmHg 34%
    03:00 +10°C° 0 mm 8 mps 764 mmHg 36%
    04:00 +9°C° 0 mm 8 mps 765 mmHg 37%
    05:00 +7°C° 0 mm 9 mps 765 mmHg 38%
    06:00 +7°C° 0 mm 9 mps 766 mmHg 36%
    07:00 +7°C° 0 mm 9 mps 767 mmHg 34%
    08:00 +7°C° 0 mm 9 mps 767 mmHg 33%
    09:00 +8°C° 0 mm 9 mps 768 mmHg 30%
    10:00 +10°C° 0 mm 8 mps 768 mmHg 28%
    11:00 +10°C° 0 mm 8 mps 769 mmHg 26%
    12:00 +11°C° 0 mm 7 mps 768 mmHg 25%
    13:00 +12°C° 0 mm 7 mps 768 mmHg 23%
    14:00 +13°C° 0 mm 6 mps 768 mmHg 22%
    15:00 +13°C° 0 mm 6 mps 768 mmHg 22%
    16:00 +13°C° 0 mm 5 mps 768 mmHg 23%
    17:00 +12°C° 0 mm 5 mps 768 mmHg 24%
    18:00 +10°C° 0 mm 5 mps 769 mmHg 33%
    19:00 +9°C° 0 mm 5 mps 769 mmHg 42%
    20:00 +7°C° 0 mm 5 mps 770 mmHg 51%
    21:00 +7°C° 0 mm 4 mps 770 mmHg 51%
    22:00 +7°C° 0 mm 4 mps 770 mmHg 50%
    23:00 +8°C° 0 mm 3 mps 770 mmHg 50%

    Day after tomorrow, 26 September, Tuesday

    Time Temperature Precipitation Wind Pressure Humidity
    00:00 +8°C° 0 mm 3 mps 770 mmHg 51%
    01:00 +7°C° 0 mm 3 mps 770 mmHg 53%
    02:00 +7°C° 0 mm 3 mps 770 mmHg 54%
    03:00 +7°C° 0 mm 3 mps 770 mmHg 55%
    04:00 +7°C° 0 mm 3 mps 770 mmHg 56%
    05:00 +7°C° 0 mm 3 mps 770 mmHg 58%
    06:00 +6°C° 0 mm 4 mps 770 mmHg 55%
    07:00 +7°C° 0 mm 4 mps 770 mmHg 53%
    08:00 +8°C° 0 mm 4 mps 770 mmHg 50%
    09:00 +10°C° 0 mm 5 mps 770 mmHg 44%
    10:00 +12°C° 0 mm 5 mps 769 mmHg 38%
    11:00 +13°C° 0 mm 5 mps 769 mmHg 32%
    12:00 +14°C° 0 mm 6 mps 769 mmHg 31%
    13:00 +14°C° 0 mm 7 mps 768 mmHg 30%
    14:00 +15°C° 0 mm 7 mps 767 mmHg 29%
    15:00 +15°C° 0 mm 8 mps 767 mmHg 32%
    16:00 +13°C° 0 mm 8 mps 766 mmHg 34%
    17:00 +13°C° 0 mm 8 mps 766 mmHg 36%
    18:00 +12°C° 0 mm 9 mps 766 mmHg 39%
    19:00 +11°C° 0 mm 9 mps 766 mmHg 42%
    20:00 +9°C° 0 mm 10 mps 766 mmHg 45%
    21:00 +9°C° 0 mm 10 mps 765 mmHg 50%
    22:00 +9°C° 0 mm 11 mps 765 mmHg 55%
    23:00 +9°C° 0 mm 11 mps 765 mmHg 60%

    27 September, Wednesday

    Time Temperature Precipitation Wind Pressure Humidity
    00:00 +9°C° 0 mm 11 mps 764 mmHg 59%
    01:00 +9°C° 0 mm 10 mps 764 mmHg 59%
    02:00 +9°C° 0 mm 10 mps 763 mmHg 58%
    03:00 +9°C° 0 mm 10 mps 763 mmHg 59%
    04:00 +10°C° 0 mm 9 mps 763 mmHg 60%
    05:00 +10°C° 0 mm 9 mps 762 mmHg 61%
    06:00 +10°C° 0 mm 9 mps 762 mmHg 58%
    07:00 +11°C° 0 mm 9 mps 762 mmHg 55%
    08:00 +12°C° 0 mm 9 mps 762 mmHg 53%
    09:00 +13°C° 0 mm 8 mps 762 mmHg 46%
    10:00 +16°C° 0 mm 8 mps 762 mmHg 39%
    11:00 +18°C° 0 mm 7 mps 761 mmHg 32%
    12:00 +20°C° 0 mm 7 mps 761 mmHg 28%
    13:00 +21°C° 0 mm 6 mps 760 mmHg 25%
    14:00 +22°C° 0 mm 6 mps 759 mmHg 21%
    15:00 +22°C° 0 mm 6 mps 759 mmHg 20%
    16:00 +22°C° 0 mm 5 mps 759 mmHg 20%
    17:00 +22°C° 0 mm 5 mps 758 mmHg 19%
    18:00 +21°C° 0 mm 4 mps 759 mmHg 22%
    19:00 +19°C° 0 mm 4 mps 759 mmHg 26%
    20:00 +18°C° 0 mm 4 mps 759 mmHg 29%
    21:00 +18°C° 0 mm 4 mps 760 mmHg 31%
    22:00 +17°C° 0 mm 3 mps 760 mmHg 33%
    23:00 +16°C° 0 mm 3 mps 760 mmHg 34%

    28 September, Thursday

    Time Temperature Precipitation Wind Pressure Humidity
    00:00 +16°C° 0 mm 3 mps 760 mmHg 36%
    01:00 +15°C° 0 mm 2 mps 760 mmHg 38%
    02:00 +14°C° 0 mm 1 mps 760 mmHg 40%
    03:00 +14°C° 0 mm 2 mps 760 mmHg 40%
    04:00 +14°C° 0 mm 2 mps 760 mmHg 41%
    05:00 +14°C° 0 mm 2 mps 760 mmHg 41%
    06:00 +15°C° 0 mm 2 mps 761 mmHg 39%
    07:00 +16°C° 0 mm 2 mps 761 mmHg 38%
    08:00 +17°C° 0 mm 3 mps 762 mmHg 36%
    09:00 +19°C° 0 mm 3 mps 762 mmHg 33%
    10:00 +21°C° 0 mm 4 mps 761 mmHg 30%
    11:00 +22°C° 0 mm 5 mps 761 mmHg 27%
    12:00 +23°C° 0 mm 6 mps 761 mmHg 26%
    13:00 +24°C° 0 mm 7 mps 761 mmHg 26%
    14:00 +26°C° 0 mm 8 mps 760 mmHg 25%
    15:00 +24°C° 0 mm 9 mps 760 mmHg 30%
    16:00 +24°C° 0 mm 10 mps 760 mmHg 35%
    17:00 +23°C° 0 mm 10 mps 759 mmHg 39%
    18:00 +22°C° 0 mm 10 mps 759 mmHg 44%
    19:00 +21°C° 0 mm 10 mps 760 mmHg 50%
    20:00 +19°C° 0 mm 10 mps 760 mmHg 55%
    21:00 +19°C° 0 mm 10 mps 760 mmHg 58%
    22:00 +18°C° 0 mm 10 mps 760 mmHg 61%
    23:00 +18°C° 0 mm 10 mps 759 mmHg 64%

    29 September, Friday

    Time Temperature Precipitation Wind Pressure Humidity
    00:00 +17°C° 0 mm 10 mps 759 mmHg 67%
    01:00 +17°C° 0 mm 11 mps 759 mmHg 70%
    02:00 +17°C° 0 mm 11 mps 759 mmHg 72%
    03:00 +16°C° 0 mm 11 mps 759 mmHg 74%
    04:00 +16°C° 0 mm 11 mps 759 mmHg 76%
    05:00 +16°C° 0 mm 11 mps 758 mmHg 77%
    06:00 +16°C° 0 mm 11 mps 758 mmHg 75%
    07:00 +17°C° 0 mm 11 mps 758 mmHg 72%
    08:00 +17°C° 0 mm 11 mps 758 mmHg 70%
    09:00 +19°C° 0 mm 11 mps 758 mmHg 63%
    10:00 +21°C° 0 mm 11 mps 757 mmHg 55%
    11:00 +23°C° 0 mm 11 mps 757 mmHg 48%
    12:00 +24°C° 0 mm 11 mps 756 mmHg 43%
    13:00 +26°C° 0 mm 11 mps 756 mmHg 39%
    14:00 +28°C° 0 mm 11 mps 755 mmHg 35%
    15:00 +28°C° 0 mm 11 mps 754 mmHg 35%
    16:00 +27°C° 0 mm 12 mps 754 mmHg 36%
    17:00 +27°C° 0 mm 12 mps 753 mmHg 36%
    18:00 +26°C° 0 mm 13 mps 753 mmHg 42%
    19:00 +24°C° 0 mm 13 mps 753 mmHg 47%
    20:00 +22°C° 0 mm 13 mps 753 mmHg 52%
    21:00 +22°C° 0 mm 13 mps 753 mmHg 58%
    22:00 +20°C° 0 mm 13 mps 753 mmHg 63%
    23:00 +20°C° 0 mm 13 mps 752 mmHg 68%
    Show more